Time,TemperatureF,DewpointF,PressureIn,WindDirection,WindDirectionDegrees,WindSpeedMPH,WindSpeedGustMPH,Humidity,HourlyPrecipIn,Conditions,Clouds,dailyrainin,SoftwareType,DateUTC
2013-10-27 00:01:00,50.9,36.6,30.12,ESE,112,0.0,0.0,58,0.00,,,0.00,WUHU21623XXSP,2013-10-27 04:01:00,
2013-10-27 00:06:00,50.7,37.3,30.12,ESE,112,0.0,0.0,60,0.00,,,0.00,WUHU21623XXSP,2013-10-27 04:06:00,
2013-10-27 00:11:00,50.7,37.7,30.12,NNE,22,0.0,0.0,61,0.00,,,0.00,WUHU21623XXSP,2013-10-27 04:11:00,
2013-10-27 00:16:00,50.5,37.6,30.12,NNE,22,0.0,0.0,61,0.00,,,0.00,WUHU21623XXSP,2013-10-27 04:16:00,
2013-10-27 00:21:00,50.5,37.6,30.12,South,180,0.0,0.0,61,0.00,,,0.00,WUHU21623XXSP,2013-10-27 04:21:00,
2013-10-27 00:26:00,50.4,37.8,30.11,SSW,202,0.0,0.0,62,0.00,,,0.00,WUHU21623XXSP,2013-10-27 04:26:00,
2013-10-27 00:31:00,50.2,37.6,30.11,NNE,22,0.0,0.0,62,0.00,,,0.00,WUHU21623XXSP,2013-10-27 04:31:00,
2013-10-27 00:36:00,50.2,37.2,30.11,West,270,0.0,0.0,61,0.00,,,0.00,WUHU21623XXSP,2013-10-27 04:36:00,
2013-10-27 00:41:00,50.4,37.4,30.11,SSW,202,0.0,0.0,61,0.00,,,0.00,WUHU21623XXSP,2013-10-27 04:41:00,
2013-10-27 00:46:00,50.4,37.0,30.11,West,270,0.0,0.0,60,0.00,,,0.00,WUHU21623XXSP,2013-10-27 04:46:00,
2013-10-27 00:51:00,50.4,37.4,30.11,WNW,292,0.0,0.0,61,0.00,,,0.00,WUHU21623XXSP,2013-10-27 04:51:00,
2013-10-27 00:56:00,50.2,37.6,30.11,NNE,22,0.0,0.0,62,0.00,,,0.00,WUHU21623XXSP,2013-10-27 04:56:00,
2013-10-27 01:01:00,50.2,36.8,30.11,South,180,0.0,0.0,60,0.00,,,0.00,WUHU21623XXSP,2013-10-27 05:01:00,
2013-10-27 01:06:00,50.2,36.8,30.11,South,180,0.0,0.0,60,0.00,,,0.00,WUHU21623XXSP,2013-10-27 05:06:00,
2013-10-27 01:11:00,49.8,37.7,30.10,North,0,0.0,0.0,63,0.00,,,0.00,WUHU21623XXSP,2013-10-27 05:11:00,
2013-10-27 01:16:00,49.8,36.9,30.10,NNE,22,0.0,0.0,61,0.00,,,0.00,WUHU21623XXSP,2013-10-27 05:16:00,
2013-10-27 01:21:00,49.6,37.1,30.10,NNE,22,0.0,0.0,62,0.00,,,0.00,WUHU21623XXSP,2013-10-27 05:21:00,
2013-10-27 01:26:00,49.6,37.1,30.10,North,0,0.0,0.0,62,0.00,,,0.00,WUHU21623XXSP,2013-10-27 05:26:00,
2013-10-27 01:31:00,49.6,36.7,30.09,SSW,202,0.0,0.0,61,0.00,,,0.00,WUHU21623XXSP,2013-10-27 05:31:00,
2013-10-27 01:36:00,49.6,37.1,30.10,North,0,0.0,0.0,62,0.00,,,0.00,WUHU21623XXSP,2013-10-27 05:36:00,
2013-10-27 01:41:00,49.6,37.5,30.10,WNW,292,0.0,0.0,63,0.00,,,0.00,WUHU21623XXSP,2013-10-27 05:41:00,
2013-10-27 01:46:00,49.3,37.2,30.11,WNW,292,0.0,0.0,63,0.00,,,0.00,WUHU21623XXSP,2013-10-27 05:46:00,
2013-10-27 01:51:00,49.3,37.2,30.10,North,0,0.0,0.0,63,0.00,,,0.00,WUHU21623XXSP,2013-10-27 05:51:00,
2013-10-27 01:56:00,49.3,36.8,30.10,North,0,0.0,0.0,62,0.00,,,0.00,WUHU21623XXSP,2013-10-27 05:56:00,
2013-10-27 02:01:00,49.6,37.5,30.10,WNW,292,0.0,0.0,63,0.00,,,0.00,WUHU21623XXSP,2013-10-27 06:01:00,
2013-10-27 02:06:00,49.6,37.9,30.10,NNE,22,0.0,0.0,64,0.00,,,0.00,WUHU21623XXSP,2013-10-27 06:06:00,
2013-10-27 02:11:00,49.3,38.0,30.10,East,90,0.0,0.0,65,0.00,,,0.00,WUHU21623XXSP,2013-10-27 06:11:00,
2013-10-27 02:16:00,49.3,38.0,30.10,ESE,112,0.0,0.0,65,0.00,,,0.00,WUHU21623XXSP,2013-10-27 06:16:00,
2013-10-27 02:21:00,49.3,38.0,30.10,ESE,112,0.0,0.0,65,0.00,,,0.00,WUHU21623XXSP,2013-10-27 06:21:00,
2013-10-27 02:26:00,49.1,37.8,30.10,ESE,112,0.0,0.0,65,0.00,,,0.00,WUHU21623XXSP,2013-10-27 06:26:00,
2013-10-27 02:31:00,49.1,38.2,30.10,East,90,0.0,0.0,66,0.00,,,0.00,WUHU21623XXSP,2013-10-27 06:31:00,
2013-10-27 02:36:00,49.1,38.6,30.10,East,90,0.0,0.0,67,0.00,,,0.00,WUHU21623XXSP,2013-10-27 06:36:00,
2013-10-27 02:41:00,48.9,38.4,30.10,ESE,112,0.0,0.0,67,0.00,,,0.00,WUHU21623XXSP,2013-10-27 06:41:00,
2013-10-27 02:46:00,48.9,38.4,30.10,ESE,112,0.0,0.0,67,0.00,,,0.00,WUHU21623XXSP,2013-10-27 06:46:00,
2013-10-27 02:51:00,48.7,38.2,30.09,ESE,112,0.0,0.0,67,0.00,,,0.00,WUHU21623XXSP,2013-10-27 06:51:00,
2013-10-27 02:56:00,48.7,38.2,30.09,ESE,112,0.0,0.0,67,0.00,,,0.00,WUHU21623XXSP,2013-10-27 06:56:00,
2013-10-27 03:01:00,48.7,38.6,30.09,ESE,112,0.0,0.0,68,0.00,,,0.00,WUHU21623XXSP,2013-10-27 07:01:00,
2013-10-27 03:06:00,48.6,38.4,30.09,South,180,0.0,0.0,68,0.00,,,0.00,WUHU21623XXSP,2013-10-27 07:06:00,
2013-10-27 03:11:00,48.6,38.8,30.08,South,180,0.0,0.0,69,0.00,,,0.00,WUHU21623XXSP,2013-10-27 07:11:00,
2013-10-27 03:16:00,48.6,39.2,30.08,ESE,112,0.0,0.0,70,0.00,,,0.00,WUHU21623XXSP,2013-10-27 07:16:00,
2013-10-27 03:21:00,48.6,39.2,30.08,ESE,112,0.0,0.0,70,0.00,,,0.00,WUHU21623XXSP,2013-10-27 07:21:00,
2013-10-27 03:26:00,48.4,39.0,30.08,South,180,0.0,0.0,70,0.00,,,0.00,WUHU21623XXSP,2013-10-27 07:26:00,
2013-10-27 03:31:00,48.4,39.0,30.08,ESE,112,0.0,0.0,70,0.00,,,0.00,WUHU21623XXSP,2013-10-27 07:31:00,
2013-10-27 03:36:00,48.4,39.0,30.08,SSW,202,0.0,0.0,70,0.00,,,0.00,WUHU21623XXSP,2013-10-27 07:36:00,
2013-10-27 03:41:00,48.4,39.0,30.08,East,90,0.0,0.0,70,0.00,,,0.00,WUHU21623XXSP,2013-10-27 07:41:00,
2013-10-27 03:46:00,48.4,39.0,30.08,ESE,112,0.0,0.0,70,0.00,,,0.00,WUHU21623XXSP,2013-10-27 07:46:00,
2013-10-27 03:51:00,48.4,39.0,30.08,South,180,0.0,0.0,70,0.00,,,0.00,WUHU21623XXSP,2013-10-27 07:51:00,
2013-10-27 03:56:00,48.4,39.0,30.08,South,180,0.0,0.0,70,0.00,,,0.00,WUHU21623XXSP,2013-10-27 07:56:00,
2013-10-27 04:01:00,48.4,39.0,30.08,ESE,112,0.0,0.0,70,0.00,,,0.00,WUHU21623XXSP,2013-10-27 08:01:00,
2013-10-27 04:06:00,48.6,39.5,30.07,South,180,0.0,0.0,71,0.00,,,0.00,WUHU21623XXSP,2013-10-27 08:06:00,
2013-10-27 04:11:00,48.6,39.5,30.07,South,180,0.0,0.0,71,0.00,,,0.00,WUHU21623XXSP,2013-10-27 08:11:00,
2013-10-27 04:16:00,48.4,39.4,30.07,ESE,112,0.0,0.0,71,0.00,,,0.00,WUHU21623XXSP,2013-10-27 08:16:00,
2013-10-27 04:21:00,48.4,39.4,30.07,South,180,0.0,0.0,71,0.00,,,0.00,WUHU21623XXSP,2013-10-27 08:21:00,
2013-10-27 04:26:00,48.4,39.4,30.07,ESE,112,0.0,0.0,71,0.00,,,0.00,WUHU21623XXSP,2013-10-27 08:26:00,
2013-10-27 04:31:00,48.4,39.0,30.07,WNW,292,0.0,0.0,70,0.00,,,0.00,WUHU21623XXSP,2013-10-27 08:31:00,
2013-10-27 04:36:00,48.4,39.4,30.07,East,90,0.0,0.0,71,0.00,,,0.00,WUHU21623XXSP,2013-10-27 08:36:00,
2013-10-27 04:41:00,48.4,39.7,30.08,East,90,0.0,0.0,72,0.00,,,0.00,WUHU21623XXSP,2013-10-27 08:41:00,
2013-10-27 04:46:00,48.6,39.9,30.07,East,90,0.0,0.0,72,0.00,,,0.00,WUHU21623XXSP,2013-10-27 08:46:00,
2013-10-27 04:51:00,48.6,39.9,30.07,East,90,0.0,0.0,72,0.00,,,0.00,WUHU21623XXSP,2013-10-27 08:51:00,
2013-10-27 04:56:00,48.6,39.9,30.07,ESE,112,0.0,0.0,72,0.00,,,0.00,WUHU21623XXSP,2013-10-27 08:56:00,
2013-10-27 05:01:00,48.4,39.7,30.07,South,180,0.0,0.0,72,0.00,,,0.00,WUHU21623XXSP,2013-10-27 09:01:00,
2013-10-27 05:06:00,48.4,39.7,30.07,ESE,112,0.0,0.0,72,0.00,,,0.00,WUHU21623XXSP,2013-10-27 09:06:00,
2013-10-27 05:11:00,48.4,39.7,30.07,ESE,112,0.0,0.0,72,0.00,,,0.00,WUHU21623XXSP,2013-10-27 09:11:00,
2013-10-27 05:16:00,48.4,39.7,30.07,ESE,112,0.0,0.0,72,0.00,,,0.00,WUHU21623XXSP,2013-10-27 09:16:00,
2013-10-27 05:21:00,48.4,39.7,30.08,ESE,112,0.0,0.0,72,0.00,,,0.00,WUHU21623XXSP,2013-10-27 09:21:00,
2013-10-27 05:26:00,48.4,39.7,30.08,ESE,112,0.0,0.0,72,0.00,,,0.00,WUHU21623XXSP,2013-10-27 09:26:00,
2013-10-27 05:31:00,48.4,39.7,30.08,East,90,0.0,0.0,72,0.00,,,0.00,WUHU21623XXSP,2013-10-27 09:31:00,
2013-10-27 05:36:00,48.4,39.7,30.08,ESE,112,0.0,0.0,72,0.00,,,0.00,WUHU21623XXSP,2013-10-27 09:36:00,
2013-10-27 05:41:00,48.4,39.7,30.08,East,90,0.0,0.0,72,0.00,,,0.00,WUHU21623XXSP,2013-10-27 09:41:00,
2013-10-27 05:46:00,48.4,40.0,30.08,ESE,112,0.0,0.0,73,0.00,,,0.00,WUHU21623XXSP,2013-10-27 09:46:00,
2013-10-27 05:51:00,48.4,39.7,30.08,SSW,202,0.0,0.0,72,0.00,,,0.00,WUHU21623XXSP,2013-10-27 09:51:00,
2013-10-27 05:56:00,48.4,39.7,30.08,South,180,0.0,0.0,72,0.00,,,0.00,WUHU21623XXSP,2013-10-27 09:56:00,
2013-10-27 06:01:00,48.4,39.7,30.08,South,180,0.0,0.0,72,0.00,,,0.00,WUHU21623XXSP,2013-10-27 10:01:00,
2013-10-27 06:06:00,48.4,39.7,30.08,South,180,0.0,0.0,72,0.00,,,0.00,WUHU21623XXSP,2013-10-27 10:06:00,
2013-10-27 06:11:00,48.4,40.0,30.08,ESE,112,0.0,0.0,73,0.00,,,0.00,WUHU21623XXSP,2013-10-27 10:11:00,
2013-10-27 06:16:00,48.4,39.7,30.08,ESE,112,0.0,0.0,72,0.00,,,0.00,WUHU21623XXSP,2013-10-27 10:16:00,
2013-10-27 06:21:00,48.6,39.9,30.08,East,90,0.0,0.0,72,0.00,,,0.00,WUHU21623XXSP,2013-10-27 10:21:00,
2013-10-27 06:26:00,48.6,39.9,30.08,ESE,112,0.0,0.0,72,0.00,,,0.00,WUHU21623XXSP,2013-10-27 10:26:00,
2013-10-27 06:31:00,48.4,39.7,30.08,SSW,202,0.0,0.0,72,0.00,,,0.00,WUHU21623XXSP,2013-10-27 10:31:00,
2013-10-27 06:36:00,48.4,40.0,30.08,South,180,0.0,0.0,73,0.00,,,0.00,WUHU21623XXSP,2013-10-27 10:36:00,
2013-10-27 06:41:00,48.2,39.9,30.08,ESE,112,0.0,0.0,73,0.00,,,0.00,WUHU21623XXSP,2013-10-27 10:41:00,
2013-10-27 06:46:00,48.0,39.7,30.08,NNE,22,0.0,0.0,73,0.00,,,0.00,WUHU21623XXSP,2013-10-27 10:46:00,
2013-10-27 06:51:00,48.0,39.7,30.08,West,270,0.0,0.0,73,0.00,,,0.00,WUHU21623XXSP,2013-10-27 10:51:00,
2013-10-27 06:56:00,47.8,39.5,30.08,North,0,0.0,0.0,73,0.00,,,0.00,WUHU21623XXSP,2013-10-27 10:56:00,
2013-10-27 07:01:00,47.3,39.4,30.08,North,0,0.0,0.0,74,0.00,,,0.00,WUHU21623XXSP,2013-10-27 11:01:00,
2013-10-27 07:06:00,46.9,39.1,30.08,East,90,0.0,0.0,74,0.00,,,0.00,WUHU21623XXSP,2013-10-27 11:06:00,
2013-10-27 07:11:00,46.6,39.1,30.08,South,180,0.0,0.0,75,0.00,,,0.00,WUHU21623XXSP,2013-10-27 11:11:00,
2013-10-27 07:16:00,46.2,39.1,30.08,East,90,0.0,0.0,76,0.00,,,0.00,WUHU21623XXSP,2013-10-27 11:16:00,
2013-10-27 07:21:00,46.0,39.3,30.08,East,90,0.0,0.0,77,0.00,,,0.00,WUHU21623XXSP,2013-10-27 11:21:00,
2013-10-27 07:26:00,45.7,38.9,30.08,ESE,112,0.0,0.0,77,0.00,,,0.00,WUHU21623XXSP,2013-10-27 11:26:00,
2013-10-27 07:31:00,45.3,38.5,30.08,East,90,0.0,0.0,77,0.00,,,0.00,WUHU21623XXSP,2013-10-27 11:31:00,
2013-10-27 07:36:00,45.1,38.4,30.08,ESE,112,0.0,0.0,77,0.00,,,0.00,WUHU21623XXSP,2013-10-27 11:36:00,
2013-10-27 07:41:00,45.1,38.7,30.09,ESE,112,0.0,0.0,78,0.00,,,0.00,WUHU21623XXSP,2013-10-27 11:41:00,
2013-10-27 07:46:00,45.3,38.9,30.09,South,180,0.0,0.0,78,0.00,,,0.00,WUHU21623XXSP,2013-10-27 11:46:00,
2013-10-27 07:51:00,45.5,39.4,30.09,ESE,112,0.0,0.0,79,0.00,,,0.00,WUHU21623XXSP,2013-10-27 11:51:00,
2013-10-27 07:56:00,45.7,39.6,30.08,ESE,112,0.0,0.0,79,0.00,,,0.00,WUHU21623XXSP,2013-10-27 11:56:00,
2013-10-27 08:01:00,45.7,39.6,30.08,ESE,112,0.0,0.0,79,0.00,,,0.00,WUHU21623XXSP,2013-10-27 12:01:00,
2013-10-27 08:06:00,45.7,39.6,30.08,South,180,0.0,0.0,79,0.00,,,0.00,WUHU21623XXSP,2013-10-27 12:06:00,
2013-10-27 08:11:00,45.5,39.4,30.08,South,180,0.0,0.0,79,0.00,,,0.00,WUHU21623XXSP,2013-10-27 12:11:00,
2013-10-27 08:16:00,45.5,39.4,30.08,WNW,292,0.0,0.0,79,0.00,,,0.00,WUHU21623XXSP,2013-10-27 12:16:00,
2013-10-27 08:21:00,45.5,39.4,30.08,ESE,112,0.0,0.0,79,0.00,,,0.00,WUHU21623XXSP,2013-10-27 12:21:00,
2013-10-27 08:26:00,45.9,39.8,30.08,South,180,0.0,0.0,79,0.00,,,0.00,WUHU21623XXSP,2013-10-27 12:26:00,
2013-10-27 08:31:00,46.0,39.9,30.08,ESE,112,0.0,0.0,79,0.00,,,0.00,WUHU21623XXSP,2013-10-27 12:31:00,
2013-10-27 08:36:00,46.0,39.9,30.09,South,180,0.0,0.0,79,0.00,,,0.00,WUHU21623XXSP,2013-10-27 12:36:00,
2013-10-27 08:41:00,46.6,40.5,30.09,ESE,112,0.0,0.0,79,0.00,,,0.00,WUHU21623XXSP,2013-10-27 12:41:00,
2013-10-27 08:46:00,46.9,40.4,30.10,South,180,0.0,0.0,78,0.00,,,0.00,WUHU21623XXSP,2013-10-27 12:46:00,
2013-10-27 08:51:00,47.1,40.6,30.10,ESE,112,0.0,0.0,78,0.00,,,0.00,WUHU21623XXSP,2013-10-27 12:51:00,
2013-10-27 08:56:00,47.3,41.1,30.10,ESE,112,0.0,0.0,79,0.00,,,0.00,WUHU21623XXSP,2013-10-27 12:56:00,
2013-10-27 09:01:00,47.7,41.4,30.10,ESE,112,0.0,0.0,79,0.00,,,0.00,WUHU21623XXSP,2013-10-27 13:01:00,
2013-10-27 09:06:00,47.8,41.6,30.10,South,180,0.0,0.0,79,0.00,,,0.00,WUHU21623XXSP,2013-10-27 13:06:00,
2013-10-27 09:11:00,48.0,41.4,30.10,South,180,0.0,0.0,78,0.00,,,0.00,WUHU21623XXSP,2013-10-27 13:11:00,
2013-10-27 09:16:00,48.2,41.2,30.10,SSW,202,0.0,0.0,77,0.00,,,0.00,WUHU21623XXSP,2013-10-27 13:16:00,
2013-10-27 09:21:00,48.6,41.6,30.10,ESE,112,0.0,0.0,77,0.00,,,0.00,WUHU21623XXSP,2013-10-27 13:21:00,
2013-10-27 09:26:00,48.7,41.8,30.11,ESE,112,0.0,0.0,77,0.00,,,0.00,WUHU21623XXSP,2013-10-27 13:26:00,
2013-10-27 09:31:00,49.1,41.8,30.11,ESE,112,0.0,0.0,76,0.00,,,0.00,WUHU21623XXSP,2013-10-27 13:31:00,
2013-10-27 09:36:00,49.6,41.6,30.11,NNE,22,0.0,0.0,74,0.00,,,0.00,WUHU21623XXSP,2013-10-27 13:36:00,
2013-10-27 09:41:00,49.8,41.8,30.11,NNE,22,0.0,0.0,74,0.00,,,0.00,WUHU21623XXSP,2013-10-27 13:41:00,
2013-10-27 09:46:00,50.2,42.2,30.12,South,180,0.0,0.0,74,0.00,,,0.00,WUHU21623XXSP,2013-10-27 13:46:00,
2013-10-27 09:51:00,50.4,42.4,30.11,SSW,202,0.0,0.0,74,0.00,,,0.00,WUHU21623XXSP,2013-10-27 13:51:00,
2013-10-27 09:56:00,50.7,42.7,30.11,East,90,0.0,0.0,74,0.00,,,0.00,WUHU21623XXSP,2013-10-27 13:56:00,
2013-10-27 10:01:00,51.4,42.8,30.11,NNE,22,0.0,0.0,72,0.00,,,0.00,WUHU21623XXSP,2013-10-27 14:01:00,
2013-10-27 10:06:00,51.6,42.3,30.11,WNW,292,0.0,0.0,70,0.00,,,0.00,WUHU21623XXSP,2013-10-27 14:06:00,
2013-10-27 10:11:00,51.6,42.3,30.11,NNE,22,0.0,0.0,70,0.00,,,0.00,WUHU21623XXSP,2013-10-27 14:11:00,
2013-10-27 10:16:00,52.0,42.2,30.11,East,90,0.0,0.0,69,0.00,,,0.00,WUHU21623XXSP,2013-10-27 14:16:00,
2013-10-27 10:21:00,52.3,42.1,30.10,NNE,22,0.0,0.0,68,0.00,,,0.00,WUHU21623XXSP,2013-10-27 14:21:00,
2013-10-27 10:26:00,52.9,42.6,30.10,WNW,292,0.0,0.0,68,0.00,,,0.00,WUHU21623XXSP,2013-10-27 14:26:00,
2013-10-27 10:31:00,53.1,42.0,30.11,SSW,202,0.0,0.0,66,0.00,,,0.00,WUHU21623XXSP,2013-10-27 14:31:00,
2013-10-27 10:36:00,52.9,42.2,30.11,WNW,292,0.0,0.0,67,0.00,,,0.00,WUHU21623XXSP,2013-10-27 14:36:00,
2013-10-27 10:41:00,53.2,42.5,30.11,North,0,0.0,0.0,67,0.00,,,0.00,WUHU21623XXSP,2013-10-27 14:41:00,
2013-10-27 10:46:00,53.2,42.5,30.11,North,0,0.0,0.0,67,0.00,,,0.00,WUHU21623XXSP,2013-10-27 14:46:00,
2013-10-27 10:51:00,53.4,42.3,30.11,West,270,0.0,0.0,66,0.00,,,0.00,WUHU21623XXSP,2013-10-27 14:51:00,
2013-10-27 10:56:00,53.8,42.6,30.11,ESE,112,0.0,0.0,66,0.00,,,0.00,WUHU21623XXSP,2013-10-27 14:56:00,
2013-10-27 11:01:00,54.0,42.8,30.11,East,90,0.0,0.0,66,0.00,,,0.00,WUHU21623XXSP,2013-10-27 15:01:00,
2013-10-27 11:06:00,54.1,43.0,30.11,WNW,292,0.0,0.0,66,0.00,,,0.00,WUHU21623XXSP,2013-10-27 15:06:00,
2013-10-27 11:11:00,54.5,43.7,30.11,West,270,0.0,0.0,67,0.00,,,0.00,WUHU21623XXSP,2013-10-27 15:11:00,
2013-10-27 11:16:00,55.0,43.8,30.11,WNW,292,0.0,0.0,66,0.00,,,0.00,WUHU21623XXSP,2013-10-27 15:16:00,
2013-10-27 11:21:00,55.2,43.6,30.11,North,0,0.0,0.0,65,0.00,,,0.00,WUHU21623XXSP,2013-10-27 15:21:00,
2013-10-27 11:26:00,56.8,44.7,30.11,West,270,0.0,0.0,64,0.00,,,0.00,WUHU21623XXSP,2013-10-27 15:26:00,
2013-10-27 11:31:00,57.6,45.0,30.11,West,270,0.0,0.0,63,0.00,,,0.00,WUHU21623XXSP,2013-10-27 15:31:00,
2013-10-27 11:36:00,57.7,44.8,30.11,West,270,0.0,0.0,62,0.00,,,0.00,WUHU21623XXSP,2013-10-27 15:36:00,
2013-10-27 11:41:00,57.7,44.8,30.12,North,0,0.0,0.0,62,0.00,,,0.00,WUHU21623XXSP,2013-10-27 15:41:00,
2013-10-27 11:46:00,57.9,45.0,30.11,SSW,202,2.1,2.4,62,0.00,,,0.00,WUHU21623XXSP,2013-10-27 15:46:00,
2013-10-27 11:59:00,58.8,45.4,30.12,WNW,292,0.0,1.7,61,0.00,,,0.00,WUHU21623XXSP,2013-10-27 15:59:00,
2013-10-27 12:04:00,59.2,45.3,30.12,North,0,0.0,1.3,60,0.00,,,0.00,WUHU21623XXSP,2013-10-27 16:04:00,
2013-10-27 12:09:00,58.8,45.0,30.11,South,180,1.2,1.3,60,0.00,,,0.00,WUHU21623XXSP,2013-10-27 16:09:00,